This demonstration page uses our WeatherBlox Daily Observations layout. Learn more.

Left ArrowRight Arrow

38.88101, -77.10428

Hourly Observations for May 15, 2020

Temp ( °F °C ) Dew Point ( °F °C ) Humidity (%) Winds ( mph kmh ) Pressure ( in mb ) Visibility ( mi km ) Precip ( " mm )
12:52 am 00:52 Mostly Cloudy 63 17.2 60 15.6 90 90 S 10 17 30.06 1018 10 16.0934 0 0
1:52 am 01:52 Mostly Cloudy 63 17.2 60 15.6 90 90 S 10 17 30.05 1018 10 16.0934 0 0
2:52 am 02:52 Mostly Cloudy 62 16.7 60 15.6 93 93 S 8 13 30.03 1017 10 16.0934 0 0
3:52 am 03:52 Mostly Cloudy 63 17.2 60 15.6 90 90 S 9 15 30.03 1017 10 16.0934 0 0
4:52 am 04:52 Cloudy 63 17.2 59 15 87 87 S 9 15 30.04 1017 10 16.0934 0 0
5:52 am 05:52 Mostly Cloudy 64 17.8 60 15.6 87 87 S 8 13 30.04 1017 10 16.0934 0.001 0.001
6:52 am 06:52 Mostly Cloudy 63 17.2 59 15 87 87 S 6 9 30.07 1018 10 16.0934 0 0
7:52 am 07:52 Mostly Cloudy 66 18.9 61 16.1 84 84 SSW 9 15 30.09 1019 10 16.0934 0 0
8:52 am 08:52 Mostly Cloudy 68 20 61 16.1 78 78 S 8 13 30.09 1019 10 16.0934 0 0
9:52 am 09:52 Mostly Cloudy 70 21.1 62 16.7 76 76 S 15 24 30.07 1018 10 16.0934 0 0
10:52 am 10:52 Cloudy 73 22.8 63 17.2 71 71 S 12 19 30.06 1018 10 16.0934 0.001 0.001
11:52 am 11:52 Mostly Cloudy 76 24.4 63 17.2 64 64 S 14 22 30.04 1017 10 16.0934 0 0
12:52 pm 12:52 Mostly Cloudy 77 25 63 17.2 62 62 S 16 26 30.02 1017 10 16.0934 0 0
1:52 pm 13:52 Mostly Sunny 80 26.7 62 16.7 54 54 S 13 20 29.99 1016 10 16.0934 0 0
2:52 pm 14:52 Mostly Sunny 85 29.4 58 14.4 40 40 S 14 22 29.97 1015 10 16.0934 0 0
3:52 pm 15:52 Mostly Sunny 84 28.9 60 15.6 44 44 S 18 30 29.93 1014 10 16.0934 0 0
4:52 pm 16:52 Mostly Sunny 85 29.4 57 13.9 39 39 SSW 17 28 29.91 1013 10 16.0934 0 0
5:52 pm 17:52 Mostly Sunny 85 29.4 56 13.3 37 37 S 21 33 29.89 1012 10 16.0934 0 0
6:52 pm 18:52 Sunny 84 28.9 55 12.8 37 37 SSW 18 30 29.88 1012 10 16.0934 0 0
7:52 pm 19:52 Mostly Sunny 82 27.8 54 12.2 38 38 SSW 15 24 29.89 1012 10 16.0934 0 0
8:52 pm 20:52 Mostly Clear 79 26.1 56 13.3 45 45 SSW 14 22 29.89 1012 10 16.0934 0 0
9:52 pm 21:52 Mostly Clear 77 25 57 13.9 50 50 SSW 13 20 29.91 1013 10 16.0934 0 0
10:52 pm 22:52 Partly Cloudy 77 25 58 14.4 52 52 SSW 13 20 29.94 1014 10 16.0934 0 0
11:52 pm 23:52 Partly Cloudy 74 23.3 59 15 60 60 SSW 12 19 29.95 1014 10 16.0934 0 0

Powered by AerisWeather